[[{"header":{"parameterUnit":"m.s-1","parameterCategory":1,"la1":30.2991,"la2":30.254,"lo1":-89.0895,"lo2":-89.0444,"dy":0.0017,"dx":0.0017,"nx":28,"ny":28,"refTime":"2024-08-22T21:00:00:Z","depth":0,"parameterNumber":2,"parameterNumberName":"U-component_of_WINDS"},"data":[0,0,0,0,0,0,0,0,0,0,0,0,0,0,0,0,0,0,0,0,0,0,0,0,0,0,0,0,0,0,0,0,0,0,0,0,0,0,0,0,0,0,0,0,0,0,0,0,0,0,0,0,0,0,0,0,0,0,-6.8982,-6.8982,0,-6.8982,-6.8982,-6.8982,-6.877,-6.8765,-6.8759,-6.8754,-6.8754,-6.8759,-6.8765,0,0,0,0,0,0,0,0,0,0,0,0,0,-6.8796,-6.8801,-6.8982,-6.8982,-6.8982,-6.8982,-6.8982,-6.8982,-6.8771,-6.8764,-6.8758,-6.8751,-6.8753,-6.8759,-6.8765,0,0,0,0,0,0,0,0,0,0,0,0,0,-6.8845,-6.8802,-6.8982,-6.8876,-6.8867,-6.8982,-6.8982,-6.8982,-6.8773,-6.8764,-6.8756,-6.8748,-6.8751,-6.8758,-6.8766,-6.8982,0,0,-6.879,-6.8793,0,0,0,0,0,0,0,0,-6.8843,-6.8852,-6.8892,-6.8884,-6.8874,-6.8868,-6.8917,-6.8982,-6.8775,-6.8809,-6.8754,-6.8744,-6.8799,-6.8802,-6.8821,-6.8982,-6.8982,-6.879,-6.8795,-6.8799,-6.8801,0,0,0,0,0,0,0,-6.884,-6.8851,-6.8982,-6.8893,-6.8882,-6.8829,-6.8826,-6.8928,-6.8851,-6.8805,-6.8789,-6.8793,-6.8792,-6.8814,-6.8819,-6.8982,-6.879,-6.8797,-6.8802,-6.8805,-6.9318,-6.9327,0,0,0,0,0,0,-6.8851,-6.885,-6.8982,-6.8982,-6.8837,-6.8839,-6.8836,-6.8878,-6.8849,-6.8836,-6.88,-6.8783,-6.8804,-6.881,-6.8818,-6.9067,-6.8799,-6.8806,-6.881,-6.9309,-6.932,-6.933,0,0,0,0,0,0,-6.8848,-6.8865,-6.8982,-6.8912,-6.8922,-6.8851,-6.89,-6.8882,-6.8903,-6.8845,-6.883,-6.8836,-6.8798,-6.8807,-6.8942,-6.9064,-6.8809,-6.8817,-6.9299,-6.9312,-6.9325,-6.9569,0,0,0,0,0,0,-6.8843,-6.8865,-6.8946,-6.8915,-6.8927,-6.9107,-6.8907,-6.8888,-6.8918,-6.8895,-6.8875,-6.8863,-6.8792,-6.8932,-6.895,-6.907,-6.8823,-6.9287,-6.9305,-6.9321,-6.9549,-6.9589,-6.9622,0,0,0,0,0,-6.8837,-6.9015,-6.8952,-6.8969,-6.9028,-6.9114,-6.9121,-6.9035,-6.8928,-6.9009,-6.8971,-6.8864,-6.9049,-6.8947,-6.8966,-6.9091,-6.9279,-6.93,-6.9319,-6.9533,-6.9581,-6.9621,0,0,0,0,0,0,-6.9063,-6.9009,-6.8938,-6.9111,-6.9119,-6.9078,-6.9178,-6.9089,-6.9127,-6.9105,-6.8997,-6.8994,-6.9146,-6.9132,-6.902,-6.9297,-6.9145,-6.917,-6.9301,-6.9346,-6.9382,-6.9381,-6.8829,0,0,0,0,0,-6.9133,-6.9208,-6.9157,-6.9315,-6.9322,-6.9251,-6.9285,-6.9218,-6.9221,-6.9224,-6.9195,-6.9203,-6.9262,-6.9303,-6.9355,-6.9547,-6.9538,-6.9642,-6.9678,-6.9709,-6.9731,-6.9829,-6.9874,-6.9396,-6.9395,-6.9395,0,0,-6.9278,-6.9258,-6.9312,-6.936,-6.9358,-6.9437,-6.9254,-6.9346,-6.9404,-6.9237,-6.9362,-6.9343,-6.9344,-6.9508,-6.9579,-6.9501,-6.9861,-6.9734,-6.9759,-6.9764,-6.9855,-6.99,-6.9941,-6.9409,-6.9407,-6.9405,0,0,-6.9582,-6.9576,-6.9705,-6.9707,-6.9707,-6.9657,-6.9689,-6.9662,-6.9642,-6.9766,-6.9643,-6.971,-6.9815,-6.982,-6.9836,-7.0143,-7.0045,-7.0163,-7.0353,-7.0451,-7.0489,-7.0521,-7.0629,-7.0669,-7.0186,-7.0187,-7.0187,0,-6.9763,-6.9878,-6.9784,-6.9884,-6.9908,-6.9761,-6.989,-6.9897,-6.9914,-6.9933,-6.9846,-6.9974,-6.9964,-7.0127,-7.0201,-7.0221,-7.0252,-7.0164,-7.0491,-7.0523,-7.0552,-7.0653,-7.0695,-7.0201,-7.0199,-7.0198,-7.0196,0,-7.0098,-7.018,-7.0285,-7.0304,-7.034,-7.0455,-7.0378,-7.0426,-7.0356,-7.0316,-7.0444,-7.0428,-7.0472,-7.0506,-7.044,-7.066,-7.0611,-7.051,-7.0354,-7.0613,-7.0707,-7.0745,-7.0221,-7.0216,-7.0212,-7.0208,0,0,-7.0544,-7.0509,-7.0549,-7.0555,-7.0544,-7.0605,-7.0714,-7.0757,-7.0799,-7.0816,-7.0903,-7.0995,-7.0901,-7.092,-7.0852,-7.0939,-7.1181,-7.0825,-7.0824,-7.089,-7.142,-7.1495,-7.1541,-7.1116,-7.1123,-7.1129,-7.1419,0,-7.0837,-7.1019,-7.0937,-7.1128,-7.1201,-7.1063,-7.1157,-7.116,-7.1126,-7.1183,-7.1144,-7.1211,-7.1082,-7.1092,-7.1172,-7.1135,-7.1285,-7.1113,-7.1195,-7.1199,-7.1197,-7.159,-7.167,-7.1944,-7.1455,-7.1461,-7.1466,0,-7.1203,-7.1234,-7.1433,-7.1406,-7.1434,-7.152,-7.1552,-7.161,-7.161,-7.1579,-7.1601,-7.1514,-7.1617,-7.1464,-7.1605,-7.1489,-7.1518,-7.1505,-7.1514,-7.1516,-7.1347,-7.1602,-7.2029,-7.207,-7.1523,-7.1518,-7.1514,0,-7.1505,-7.1598,-7.1727,-7.1737,-7.1711,-7.1774,-7.1766,-7.1758,-7.1789,-7.1818,-7.1837,-7.1879,-7.1901,-7.1935,-7.1861,-7.1757,-7.2012,-7.1853,-7.1987,-7.199,-7.2045,-7.2042,-7.2482,-7.2069,-7.2068,-7.2067,-7.2067,0,-7.184,-7.1966,-7.1862,-7.1942,-7.2078,-7.1984,-7.2122,-7.2098,-7.2093,-7.2165,-7.2049,-7.2119,-7.2019,-7.2079,-7.2023,-7.2146,-7.2158,-7.2135,-7.2118,-7.2144,-7.2147,-7.216,-7.2138,-7.2078,-7.2076,-7.2074,-7.2072,0,-7.22,-7.2136,-7.2267,-7.2232,-7.2226,-7.2328,-7.2297,-7.2369,-7.2327,-7.242,-7.2436,-7.2371,-7.2436,-7.2366,-7.2427,-7.2388,-7.2555,-7.2511,-7.2554,-7.2541,-7.2679,-7.2666,-7.314,-7.3197,-7.275,-7.2755,-7.2758,0,-7.2416,-7.2509,-7.2484,-7.2524,-7.2523,-7.2589,-7.262,-7.2531,-7.2568,-7.2575,-7.2646,-7.2702,-7.274,-7.2851,-7.2809,-7.2854,-7.2809,-7.2972,-7.2815,-7.2838,-7.2809,-7.2803,-7.2811,-7.3004,-7.3009,-7.3013,-7.3017,0,-7.2806,-7.277,-7.2819,-7.2858,-7.2898,-7.2924,-7.2941,-7.2981,-7.2888,-7.2935,-7.3,-7.3031,-7.3092,-7.3148,-7.3181,-7.3172,-7.308,-7.3067,-7.31,-7.3126,-7.3147,-7.3135,-7.2639,-7.3056,-7.3052,-7.3049,-7.3047,-7.3046,-7.3099,-7.3175,-7.3168,-7.3227,-7.323,-7.3249,-7.3314,-7.3281,-7.3333,-7.3376,-7.332,-7.34,-7.3398,-7.3432,-7.3435,-7.3496,-7.3426,-7.3475,-7.3486,-7.3499,-7.3519,-7.314,-7.3502,-7.3501,-7.3499,-7.3498,-7.3498,0,-7.3481,-7.347,-7.3525,-7.3552,-7.3598,-7.3507,-7.3522,-7.3566,-7.3638,-7.3643,-7.3684,-7.3759,-7.3813,-7.3775,-7.382,-7.3876,-7.3835,-7.3891,-7.3885,-7.3884,-7.358,-7.3545,-7.3924,-7.3924,-7.3924,-7.3923,-7.3923,-7.3923,-7.3684,-7.3807,-7.3771,-7.3894,-7.3882,-7.3959,-7.3975,-7.3991,-7.3995,-7.4083,-7.4127,-7.4102,-7.409,-7.4134,-7.4179,-7.4166,-7.4187,-7.4259,-7.4231,-7.3947,-7.3905,-7.3865,-7.3832,-7.4265,-7.4265,-7.4529,-7.4532,-7.4534]},{"header":{"parameterUnit":"m.s-1","parameterCategory":1,"la1":30.2991,"la2":30.254,"lo1":-89.0895,"lo2":-89.0444,"dy":0.0017,"dx":0.0017,"nx":28,"ny":28,"refTime":"2024-08-22T21:00:00:Z","depth":0,"parameterNumber":3,"parameterNumberName":"V-component_of_WINDS"},"data":[0,0,0,0,0,0,0,0,0,0,0,0,0,0,0,0,0,0,0,0,0,0,0,0,0,0,0,0,0,0,0,0,0,0,0,0,0,0,0,0,0,0,0,0,0,0,0,0,0,0,0,0,0,0,0,0,0,0,-2.0243,-2.0243,0,-2.0219,-2.0219,-2.0219,-2.0202,-2.0201,-2.0201,-2.0201,-2.0176,-2.0175,-2.0175,0,0,0,0,0,0,0,0,0,0,0,0,0,-2.0272,-2.0271,-2.0243,-2.0243,-2.0243,-2.0219,-2.0219,-2.0219,-2.0202,-2.0201,-2.0201,-2.0201,-2.0176,-2.0175,-2.0175,0,0,0,0,0,0,0,0,0,0,0,0,0,-2.0255,-2.0271,-2.0243,-2.0231,-2.023,-2.0219,-2.0219,-2.0219,-2.0202,-2.0201,-2.0201,-2.0201,-2.0176,-2.0175,-2.0175,-2.0174,0,0,-2.0172,-2.0172,0,0,0,0,0,0,0,0,-2.0256,-2.0254,-2.0233,-2.0232,-2.0231,-2.0213,-2.022,-2.0204,-2.0202,-2.0212,-2.0201,-2.0201,-2.0188,-2.0187,-2.0183,-2.0173,-2.0172,-2.0172,-2.0172,-2.0171,-2.0171,0,0,0,0,0,0,0,-2.0257,-2.0255,-2.0234,-2.0233,-2.0231,-2.0226,-2.0224,-2.0217,-2.0202,-2.0211,-2.021,-2.0208,-2.0188,-2.0183,-2.0182,-2.0171,-2.0172,-2.0171,-2.0171,-2.0171,-2.0157,-2.0157,0,0,0,0,0,0,-2.026,-2.0256,-2.0235,-2.0233,-2.0243,-2.0226,-2.0223,-2.0219,-2.0202,-2.0199,-2.0208,-2.0207,-2.0185,-2.0183,-2.0181,-2.0177,-2.0171,-2.017,-2.017,-2.0157,-2.0157,-2.0157,0,0,0,0,0,0,-2.0261,-2.0258,-2.0235,-2.0244,-2.0241,-2.0226,-2.0221,-2.0219,-2.0214,-2.0199,-2.0196,-2.0206,-2.0185,-2.0182,-2.0175,-2.0176,-2.017,-2.0169,-2.0157,-2.0157,-2.0157,-2.0171,0,0,0,0,0,0,-2.0262,-2.0259,-2.0259,-2.0244,-2.024,-2.0231,-2.0221,-2.0218,-2.0213,-2.0212,-2.0197,-2.0194,-2.0184,-2.0177,-2.0174,-2.0175,-2.0169,-2.0156,-2.0157,-2.0157,-2.017,-2.0172,-2.0173,0,0,0,0,0,-2.0263,-2.0264,-2.0259,-2.0257,-2.024,-2.0231,-2.0229,-2.0218,-2.0213,-2.0213,-2.0203,-2.0195,-2.0176,-2.0176,-2.0173,-2.0174,-2.0156,-2.0157,-2.0157,-2.017,-2.0171,-2.0173,0,0,0,0,0,0,-2.028,-2.0262,-2.0256,-2.0253,-2.0244,-2.0228,-2.0228,-2.022,-2.0211,-2.021,-2.0196,-2.0193,-2.0187,-2.018,-2.018,-2.0171,-2.0165,-2.0165,-2.0176,-2.0177,-2.0179,-2.018,-2.0168,0,0,0,0,0,-2.0283,-2.0278,-2.0262,-2.0261,-2.0257,-2.0243,-2.0239,-2.023,-2.022,-2.0216,-2.0205,-2.0195,-2.0187,-2.0182,-2.0173,-2.0169,-2.0165,-2.0168,-2.0169,-2.017,-2.017,-2.0165,-2.0166,-2.0158,-2.0158,-2.0158,0,0,-2.029,-2.028,-2.0277,-2.0264,-2.0256,-2.025,-2.024,-2.0234,-2.0229,-2.0215,-2.0208,-2.0199,-2.0187,-2.0181,-2.0178,-2.0174,-2.0171,-2.017,-2.0171,-2.0171,-2.0166,-2.0166,-2.0167,-2.0158,-2.0158,-2.0158,0,0,-2.0299,-2.0292,-2.0289,-2.028,-2.0268,-2.0259,-2.0258,-2.0243,-2.0237,-2.0229,-2.0218,-2.0211,-2.0198,-2.0189,-2.0183,-2.0186,-2.0178,-2.0184,-2.019,-2.0185,-2.0186,-2.0187,-2.0187,-2.0187,-2.0184,-2.0184,-2.0184,0,-2.031,-2.03,-2.0288,-2.0283,-2.0276,-2.0263,-2.0259,-2.0252,-2.0237,-2.0233,-2.0229,-2.0211,-2.0201,-2.0192,-2.0193,-2.0189,-2.0186,-2.0186,-2.0187,-2.0187,-2.0188,-2.0187,-2.0188,-2.0185,-2.0184,-2.0184,-2.0184,0,-2.0313,-2.0306,-2.0305,-2.0291,-2.0285,-2.028,-2.0266,-2.0261,-2.0253,-2.0243,-2.0235,-2.0223,-2.0211,-2.0208,-2.0201,-2.0197,-2.0196,-2.019,-2.0184,-2.0189,-2.0189,-2.0189,-2.0186,-2.0185,-2.0185,-2.0185,0,0,-2.0333,-2.0311,-2.0311,-2.0303,-2.0288,-2.0282,-2.0276,-2.0264,-2.0259,-2.0249,-2.0243,-2.0231,-2.0225,-2.0218,-2.0208,-2.0205,-2.0206,-2.0199,-2.0199,-2.02,-2.02,-2.0204,-2.0204,-2.0201,-2.0201,-2.0201,-2.0201,0,-2.0339,-2.0328,-2.0316,-2.0309,-2.0301,-2.0288,-2.0282,-2.0272,-2.0262,-2.0254,-2.0243,-2.0234,-2.0228,-2.0223,-2.0219,-2.0207,-2.0206,-2.0207,-2.0194,-2.0193,-2.0197,-2.0204,-2.0209,-2.021,-2.0201,-2.0201,-2.0201,0,-2.0345,-2.0335,-2.0327,-2.031,-2.0307,-2.0302,-2.0289,-2.0282,-2.0269,-2.0262,-2.0253,-2.0243,-2.0235,-2.023,-2.0217,-2.0218,-2.0211,-2.0205,-2.0204,-2.0202,-2.0197,-2.0202,-2.021,-2.021,-2.02,-2.02,-2.02,0,-2.0359,-2.0343,-2.0336,-2.033,-2.0311,-2.0308,-2.0299,-2.0286,-2.0279,-2.0268,-2.0263,-2.0251,-2.0244,-2.0234,-2.0221,-2.0219,-2.0209,-2.0203,-2.0202,-2.0202,-2.0201,-2.0201,-2.0207,-2.0198,-2.0198,-2.0198,-2.0198,0,-2.0366,-2.0361,-2.0342,-2.0337,-2.0331,-2.0317,-2.0311,-2.0301,-2.0289,-2.0281,-2.0269,-2.0262,-2.0245,-2.0235,-2.0225,-2.0215,-2.0212,-2.0206,-2.0203,-2.0206,-2.0207,-2.0202,-2.0201,-2.0198,-2.0198,-2.0198,-2.0198,0,-2.0381,-2.0367,-2.0358,-2.034,-2.0336,-2.0332,-2.0316,-2.031,-2.03,-2.029,-2.0287,-2.027,-2.0258,-2.0244,-2.0228,-2.022,-2.0211,-2.0207,-2.0216,-2.0214,-2.0213,-2.0213,-2.0216,-2.0215,-2.0207,-2.0207,-2.0207,0,-2.0386,-2.0382,-2.0363,-2.0357,-2.035,-2.0341,-2.0333,-2.0318,-2.0311,-2.0295,-2.0291,-2.0278,-2.0267,-2.0248,-2.0234,-2.0221,-2.0216,-2.0218,-2.0214,-2.0217,-2.0215,-2.0215,-2.0214,-2.0219,-2.0219,-2.0219,-2.0219,0,-2.0396,-2.039,-2.038,-2.0367,-2.0359,-2.0348,-2.0337,-2.0333,-2.0315,-2.0308,-2.0295,-2.0287,-2.0269,-2.0256,-2.0241,-2.0231,-2.0222,-2.022,-2.0219,-2.0223,-2.0227,-2.0224,-2.0218,-2.022,-2.022,-2.022,-2.022,-2.022,-2.0406,-2.0401,-2.0387,-2.0376,-2.0365,-2.0355,-2.0348,-2.0337,-2.0326,-2.0311,-2.0303,-2.029,-2.0275,-2.0254,-2.0244,-2.0234,-2.023,-2.0229,-2.0229,-2.0228,-2.0229,-2.0229,-2.0231,-2.0231,-2.0231,-2.0231,-2.0231,0,-2.0414,-2.0404,-2.0394,-2.0379,-2.037,-2.0362,-2.0349,-2.0341,-2.0331,-2.0318,-2.0307,-2.0292,-2.0279,-2.0263,-2.0248,-2.0243,-2.0238,-2.0239,-2.0239,-2.0237,-2.0233,-2.0235,-2.0243,-2.0243,-2.0243,-2.0243,-2.0243,-2.0243,-2.0418,-2.0409,-2.04,-2.0385,-2.0375,-2.0363,-2.0356,-2.0345,-2.0335,-2.0319,-2.0308,-2.0298,-2.0283,-2.0267,-2.0254,-2.025,-2.0245,-2.0247,-2.0241,-2.0238,-2.0237,-2.0236,-2.0238,-2.0246,-2.0246,-2.0246,-2.0246,-2.0246]}]]